Weather in Madurai

India     9°56′14″N   78°08′23″E
temp.,
°C
wind,
m/s
gust,
m/s
humid.,
%
clouds,
%
prec.,
mm/h
press.,
hPa
HPBL,
m
25 january, mon
mon2523:30+22ne358575 0.0 1014167
02:30+21nne348399 0.0 1013102
05:30+20n348599 0.0 101390
08:30+23nne357866 0.0 1015406
11:30+27ne455656 0.0 10151370
14:30+29ne454728 0.0 10111554
17:30+27ne365939 0.0 1011363
20:30+24ne33696 0.0 101360
26 january, tue
tue2623:30+22ne378315 0.0 1014221
02:30+21nne358875 0.0 1012136
05:30+20nne239070 0.0 101263
08:30+22ne577824 0.0 1014631
11:30+27nne565716 0.0 10141185
14:30+29ne564244 0.0 10101442
17:30+27ne355259 0.0 1010208
20:30+23ene346932 0.0 101269
27 january, wed
wed2723:30+21ne358429 0.0 1013148
02:30+20nne358448 0.0 1011128
05:30+19nne348463 0.0 101192
08:30+22nne477364 0.0 1013633
11:30+27nne565033 0.0 10131357
14:30+29ne57426 0.0 10101749
17:30+27ne475317 0.0 1010385
20:30+22ne34676 0.0 101374
28 january, thu
thu2823:30+20nne358013 0.0 1013117
02:30+19nne348142 0.0 101269
05:30+19n348023 0.0 101260
08:30+23nne47734 0.0 1014680
11:30+27ne565740 0.0 10141135
14:30+29ne55518 0.0 10111368
17:30+28ne355840 0.0 1011926
20:30+24ne497364 0.0 1013261
29 january, fri
fri2923:30+22nne488038 0.0 1013287
02:30+21nne488353 0.0 1012303
05:30+21n488366 0.0 1012359
08:30+23nne477643 0.0 1014618
11:30+28nne565926 0.0 10131049
14:30+30ne55525 0.0 10101357
17:30+29ne45604 0.0 10101175
20:30+25ne597820 0.2 1013317